www.pogodaiklimat.ru

Архив погоды в Пскове (Псковская область, Россия)

Время
(UTC), дата
21 10.06
00 11.06
03 11.06
06 11.06
09 11.06
12 11.06
15 11.06
18 11.06
21 11.06
00 12.06
03 12.06
06 12.06
09 12.06
12 12.06
15 12.06
18 12.06
21 12.06
00 13.06
03 13.06
06 13.06
09 13.06
12 13.06
15 13.06
18 13.06
21 13.06
00 14.06
03 14.06
06 14.06
09 14.06
12 14.06
15 14.06
18 14.06
21 14.06
00 15.06
03 15.06
06 15.06
09 15.06
12 15.06
15 15.06
18 15.06
21 15.06
00 16.06
03 16.06
06 16.06
09 16.06
12 16.06
15 16.06
18 16.06
21 16.06
00 17.06
03 17.06
06 17.06
09 17.06
12 17.06
15 17.06
18 17.06
Ветер
(напр.,м/с)
Видим. Явления Облачность Т
(С)
Тd
(С)
f
(%)
Тe
(С)
Тes
(С)
Комфортность P
(гПа)
Po
(гПа)
Тmin
(С)
Tmax
(С)
R
(мм)
R24
(мм)
S
(см)
штиль 0 20 км 9/6 600 м
[Cb cap Ac trans Cs]
+13.3 +12.6 96 +13 +13 по сезону 1004.7 999.3
штиль 0 20 км н/о +12.6 +12.0 96 +12 +12 по сезону 1004.0 998.6
штиль 0 20 км 8/4 600 м
[Sc diur, vesp Ac trans Ci fib]
+11.8 +11.7 99 +11 +12 по сезону 1003.8 998.4 +11.1 0.6
СЗ 2 20 км 8/0 2000 м
[Ac trans Ci fib]
+17.1 +9.4 60 +17 +22 тепло 1004.3 999.0 +11.1
З 1 20 км 5/5 600 м
[Cu hum]
+20.3 +9.7 51 +23 +31 комфорт 1005.0 999.7
З 2 20 км 3/3 1500 м
[Cu hum]
+22.4 +6.4 35 +23 +32 комфорт 1005.4 1000.2
З 1 20 км 1/1 1500 м
[Cu hum]
+23.2 +5.3 31 +23 +29 комфорт 1005.4 1000.2
штиль 0 20 км 3/0
[Ac trans]
+19.6 +8.8 50 +20 +21 тепло 1005.7 1000.5 +23.3
штиль 0 20 км 8/5 1000 м
[Sc Ac trans]
+12.8 +11.2 90 +12 +12 по сезону 1006.7 1001.3
З 1 20 км 10/8 1000 м
[Cb cap Ac As]
+13.3 +11.4 88 +13 +13 тепло 1006.8 1001.4
штиль 0 20 км 4/3 1000 м
[Sc Ci fib]
+13.9 +11.7 87 +13 +14 по сезону 1007.1 1001.8 +12.2
З 3 20 км 6/6 600 м
[Cu hum]
+15.6 +10.8 73 +15 +17 по сезону 1009.5 1004.1 +12.2 0.0
З 2 20 км 6/6 1000 м
[Cb cap]
+17.3 +9.2 59 +18 +23 по сезону 1010.8 1005.5
ЮЗ 2 20 км 8/8 1000 м
[Cb cap]
+19.2 +9.1 52 +21 +23 комфорт 1011.6 1006.3
Ю 1 20 км 8/8 1000 м
[Cb cap]
+19.3 +10.0 55 +21 +23 комфорт 1012.0 1006.7
штиль 0 20 км 6/4 1500 м
[Cu Sc Ci sp]
+17.0 +10.9 67 +17 +17 по сезону 1012.3 1006.9 +20.6
штиль 0 20 км 8/0
[Ac trans]
+13.3 +10.7 84 +13 +13 по сезону 1013.7 1008.2
З 1 20 км 8/0
[Ac trans]
+11.8 +9.4 85 +12 +12 по сезону 1014.3 1008.9
З 2 20 км 3/0
[Ci fib]
+11.6 +9.4 86 +10 +11 прохладно 1015.4 1010.0 +9.8
СЗ 2 20 км 4/4 600 м
[Cu hum]
+16.5 +10.3 67 +17 +21 тепло 1016.3 1011.0 +9.8
З 2 20 км 5/5 1500 м
[Cu med, cong]
+18.0 +8.9 55 +19 +26 тепло 1016.1 1010.8
СЗ 1 20 км 5/4 1500 м
[Cu med, cong Ci fib]
+20.9 +7.8 43 +23 +32 комфорт 1016.2 1010.9
СЗ 2 20 км 4/3 1500 м
[Cu med, cong Ci fib]
+20.3 +6.2 40 +22 +25 комфорт 1015.8 1010.5
штиль 0 20 км 1/0
[Ac trans]
+16.9 +7.0 52 +17 +17 по сезону 1015.8 1010.4 +21.4
штиль 0 20 км 4/0
[Ac trans Ci fib]
+10.1 +9.1 94 +9 +9 холодно 1016.2 1010.7
штиль 0 20 км 5/0
[Ac trans Ci fib]
+8.7 +8.2 97 +8 +8 прохладно 1016.0 1010.5
штиль 0 20 км 9/0
[Ac As]
+10.2 +9.8 97 +9 +10 прохладно 1015.9 1010.5 +7.7
В 1 20 км 10/3 600 м
[Cu med, cong Ac As]
+15.7 +9.3 66 +16 +18 по сезону 1015.8 1010.4 +7.7
З 1 20 км 10/0
[As op]
+17.4 +11.0 66 +18 +22 по сезону 1015.6 1010.3
СЗ 1 20 км 10/0
[As op]
+16.3 +10.9 70 +17 +20 прохладно 1016.0 1010.6
Ю 1 2000 м ливневой дождь 10/10 1000 м
[Cb cap]
+12.8 +12.7 99 +13 +13 холодно 1016.4 1011.0 3
штиль 0 20 км {ливн. дождь} 9/6 1000 м
[Sc diur, vesp Ac cast Ci fib]
+13.9 +12.7 92 +13 +14 прохладно 1016.3 1010.8 +18.4 4
штиль 0 4000 м дымка 9/4 1000 м
[Sc diur, vesp Ac trans Ci fib]
+10.5 +10.5 100 +10 +10 прохладно 1016.5 1011.0
штиль 0 4000 м дымка 10/5 1000 м
[Sc diur, vesp Ac trans Ci fib]
+8.5 +8.5 100 +7 +7 прохладно 1016.6 1011.1
штиль 0 20 км 10/8 1000 м
[Sc Ac trans]
+9.8 +9.8 100 +9 +9 прохладно 1017.0 1011.5 +8.2 1
штиль 0 20 км 8/4 600 м
[Sc Ac trans]
+14.7 +13.5 93 +14 +18 по сезону 1017.3 1011.9 +8.2
З 1 20 км 8/8 1000 м
[Cb cap]
+17.1 +11.6 70 +18 +21 по сезону 1017.2 1011.8
В 1 20 км 8/8 600 м
[Cb cap]
+20.8 +10.6 52 +24 +27 комфорт 1016.6 1011.3
СЗ 1 20 км 6/3 600 м
[Cu hum Ac trans]
+20.8 +10.3 51 +24 +27 комфорт 1016.3 1011.0
В 1 20 км ясно +18.6 +9.8 57 +20 +20 тепло 1016.2 1010.8 +21.2
штиль 0 10 км ясно +11.3 +10.8 97 +11 +11 прохладно 1017.3 1011.8
штиль 0 10 км ясно +9.4 +9.4 100 +8 +8 по сезону 1017.8 1012.3
штиль 0 20 км ясно +12.4 +11.8 96 +12 +13 по сезону 1018.3 1012.8 +9.2
ЮВ 2 20 км 3/0
[Ci fib]
+19.5 +12.8 65 +22 +28 комфорт 1018.0 1012.7 +9.2
ЮВ 2 20 км 6/4 600 м
[Cu hum Cs]
+23.3 +12.1 49 +26 +34 жарко 1017.4 1012.1
ЮВ 1 20 км н/о +24.6 +10.8 42 +26 +26 жарко 1016.6 1011.4
В 3 20 км 5/5 600 м
[Cu med, cong]
+24.9 +12.1 45 +27 +29 жарко 1015.4 1010.1
В 2 20 км 3/0
[Ac trans]
+22.9 +12.5 52 +26 +26 жарко 1015.0 1009.8 +26.2
В 2 20 км 4/0
[Ac trans]
+18.9 +13.0 69 +20 +20 тепло 1015.7 1010.3
В 1 20 км 10/0
[Ac As]
+18.1 +11.8 67 +19 +19 тепло 1015.1 1009.7
В 2 20 км н/о +16.2 +13.0 81 +16 +16 тепло 1014.4 1009.1 +16.0 0.3
СВ 1 10 км гроза без осадков 10/8 600 м
[Cb cap Ac trans]
+16.4 +16.4 100 +17 +18 тепло 1013.9 1008.6 +14.6 10
С 1 10 км слаб. ливневой дождь {гроза} 10/10 1000 м
[Cb cap]
+19.7 +17.5 87 +23 +23 комфорт 1013.7 1008.4
С 1 1000 м слаб. ливневой дождь {гроза} 10/10 1000 м
[Cb cap]
+18.6 +18.6 100 +21 +21 комфорт 1013.3 1007.9
С 1 10 км слаб. ливневой дождь 10/10 1000 м
[Cb cap]
+19.4 +18.4 94 +23 +23 комфорт 1012.2 1006.9 18
СЗ 2 10 км {ливн. дождь} 10/10
[Cb cap]
+18.1 +17.4 96 +19 +19 тепло 1011.3 1006.0 +20.4 9
Местоположение метеостанции Псков (Псковская область, Россия): широта 57.82 долгота 28.33 высота над уровнем моря 44 м.
В архиве по умолчанию представлена погода в Пскове за последнюю неделю. Архивные данные за месяц целиком и за предыдущие месяцы, начиная с января 2011 года, Вы можете получить, выбрав интересующий диапазон дат из раскрывающегося списка и нажав кнопку "Найти!".
*Определитесь, кто Вы:
Внимание! Время в таблицах - всемирное. Для получения местного времени необходимо прибавить поправку, которая равна 3 ч.
Некоторые строки с данными для отдельных станций могут быть выделены курсивом. Это означает, что фактические данные отсутствуют по различным причинам, а приведенные значения являются расчетными модельными данными для данного пункта наблюдений.
Смотрите также архив погоды в соседних городах и на ближайших метеорологических станциях:
Партнеры нашего сайта:      
Пояснения к столбцам:
  • Ветер - указаны скорость ветра в м/с - средняя за 10 мин, порывы в срок и между сроками (в фигурных скобках) и направление, откуда дует ветер: С - северный,
  • СВ - северо-восточный, В - восточный, ЮВ - юго-восточный, Ю - южный, ЮЗ - юго-западный, З - западный, СЗ - северо-западный.
  • Видимость - горизонтальная дальность видимости в метрах или километрах. При видимости от 1 до 10 км при отсутствии осадков обычно наблюдается дымка, при ухудшении видимости до 1 км и менее - туман. В сухую погоду видимость может ухудшаться дымом, пылью или мглою.
  • Явления - указаны атмосферные явления, наблюдавшиеся в срок или в последний час перед сроком; фигурными скобками обозначены явления, наблюдавшиеся между сроками (за 1-3 часа до срока); квадратными скобками обозначены град или гололедные отложения с указанием их диаметра в мм.
  • Облачность - указаны через наклонную черту общая и нижняя облачность в баллах и высота нижней границы облаков в метрах; квадратными скобками обозначены формы облаков: Ci - перистые, Cs - перисто-слоистые, Cc - перисто-кучевые, Ac - высококучевые, As - высокослоистые, Sc - слоисто-кучевые, Ns - слоисто-дождевые, Cu - кучевые, Cb - кучево-дождевые. Подробнее классификацию облаков см. в Атласе облаков (PDF).
  • T - Температура воздуха - температура, измеренная на высоте 2 м над землей.
  • Td - Температура точки росы - температура, при понижении до которой содержащийся в воздухе водяной пар достигнет насыщения.
  • f - Относительная влажность воздуха - влажноcть воздуха, измеренная на высоте 2 м над землей.
  • Te - Эффективная температура - температура, которую ощущает одетый по сезону человек в тени. Характеристика душности погоды. При расчете учитывается влияние влажности воздуха и скорости ветра на теплоощущения человека.
  • Tes - Эффективная температура на солнце - температура, которую ощущает человек, с поправкой на солнечный нагрев. Характеристика знойности погоды. Зависит от высоты солнца над горизонтом, облачности и скорости ветра. Ночью, в пасмурную погоду, а также при ветре 12 м/с и более поправка равна нулю.
  • P - Атмосферное давление - приведенное к уровню моря атмосферное давление.
  • Po - Атмосферное давление - измеренное на уровне метеостанции атмосферное давление.
  • Tmin - Минимальная температура - минимум температуры воздуха на высоте 2 м над землей.
  • Tmax - Максимальная температура - максимум температуры воздуха на высоте 2 м над землей.
  • R - Количество осадков - Количество выпавших осадков за период времени, мм. При наведении курсора мыши на число - период времени, за который выпало указанное количество осадков.
  • R24 - Количество осадков - Количество выпавших осадков за 24 часа, мм.
  • S - Снежный покров - Высота снежного покрова, см. При наведении курсора мыши на число - состояние снежного покрова и степень покрытия местности в баллах.